Back to catalog

DELTA 1 DEB

AliveSSO
NORAD 12294·DEBRIS·🇺🇸 United States

Launched Mar 5, 1978 from Vandenberg Space Force Base

Loading…

Next Passes (next 24 hours)

TLE

FreshSource: Space-Track

Epoch: Sep 14, 2026, 04:15 UTC

1 12294U 78026EN  26257.17753641  .00000646  00000-0  18955-3 0  9994
2 12294  98.5842 242.5658 0090233 358.2903   1.7967 14.45036339386785

Track DELTA 1 DEB in real time with AllMySat

Download on the App Store